GFSNGP_2pvu_pres_006.txt.gz
Presure
185 178 173 166 168 151 179 184 174 156 175 175 174 125 181 184 183 184 177 168 173 184 178 194 192 190 188 196 207 209 213 216 225 217 236 275 256 274 288 355 338 330 323 320
181 137 178 162 157 159 167 142 183 185 177 175 174 115 167 170 188 189 185 172 176 179 199 195 192 187 198 201 213 211 221 222 235 237 245 287 275 282 310 343 333 324 323 330
177 173 168 172 169 160 157 150 177 139 120 159 166 191 186 183 191 193 189 178 182 189 188 194 193 196 208 212 215 215 223 238 239 247 300 282 290 357 346 335 329 328 333 341
181 167 163 179 170 178 162 155 186 145 134 173 193 189 189 180 194 190 187 183 190 183 197 195 210 203 210 217 221 226 233 234 242 308 287 306 355 347 338 334 331 336 343 331
174 167 171 120 153 190 185 177 170 183 194 188 190 177 184 191 196 181 180 207 202 186 198 201 220 210 223 231 223 228 247 230 279 297 304 333 348 341 335 336 340 325 331 346
118 179 187 174 168 168 127 187 193 159 187 195 196 195 194 180 188 192 209 211 195 192 208 221 221 220 233 231 237 240 246 235 308 340 316 346 270 335 340 346 323 328 350 369
174 150 163 161 140 203 173 108 185 148 188 193 196 199 197 205 205 212 215 192 210 214 223 227 236 235 240 250 254 254 255 337 347 309 297 265 338 345 346 318 326 354 345 379
173 147 117 178 108 174 204 197 197 186 196 202 200 200 203 204 204 220 221 220 230 234 235 244 256 263 257 275 272 326 337 332 309 300 261 344 349 343 324 332 354 316 358 458
111 190 186 195 195 192 197 205 199 195 193 207 204 201 215 221 230 235 237 249 260 263 264 262 252 252 274 332 340 282 307 299 292 258 347 346 344 340 334 343 319 364 451 397
104 188 136 187 193 207 210 190 191 200 209 203 216 222 224 233 226 233 250 259 279 275 270 306 338 335 326 316 289 301 282 362 270 348 343 344 344 324 322 348 305 455 448 371
196 177 142 192 208 165 206 203 184 207 172 217 240 236 279 254 255 265 283 290 318 326 330 322 326 312 304 294 272 275 338 348 350 344 344 345 318 323 367 295 446 433 390 371
128 216 185 177 201 184 231 233 235 229 223 243 229 260 250 277 270 306 330 317 307 306 305 303 298 292 269 272 295 342 349 353 346 344 345 323 326 343 301 406 442 428 372 340
202 162 213 235 228 219 223 228 233 230 253 258 272 274 287 333 329 316 298 286 290 300 288 277 269 268 256 306 353 349 353 344 342 344 325 330 330 304 354 442 421 401 363 336
127 217 231 222 223 229 245 223 270 256 250 267 308 325 320 306 295 292 288 277 262 264 266 259 272 387 368 353 349 352 336 342 348 336 333 328 318 355 462 420 412 382 364 329
212 216 213 202 236 231 241 239 252 259 274 327 306 272 295 297 269 276 285 290 273 255 276 329 382 372 357 349 347 337 337 343 343 333 331 324 369 462 434 407 402 368 357 325
219 215 230 251 228 264 278 272 271 276 307 286 278 288 272 282 276 251 251 277 276 365 389 376 357 355 349 344 340 335 348 349 328 334 321 451 459 446 408 396 394 361 344 324
222 246 244 233 263 282 273 268 285 301 287 259 264 277 298 302 278 296 293 418 403 386 366 366 352 348 342 337 338 351 348 325 351 310 471 455 442 427 390 386 376 345 337 321
256 242 253 275 279 280 282 317 298 272 256 265 270 262 268 280 352 417 403 396 379 366 364 350 341 336 333 346 353 331 340 337 374 462 450 431 427 401 377 380 366 348 336 317
262 266 276 282 285 297 312 270 270 256 261 264 271 291 339 407 410 397 383 373 365 361 345 339 336 334 352 344 328 349 332 460 452 443 429 422 406 382 367 381 356 339 334 316
247 282 291 296 307 269 262 257 260 273 358 408 414 416 411 398 386 375 367 360 351 344 335 331 342 351 326 344 327 337 450 444 437 423 406 418 383 367 358 400 355 335 331 315
294 311 285 274 281 283 303 381 387 419 414 423 414 403 386 376 371 359 354 345 337 330 332 346 346 316 333 330 329 445 438 432 422 411 415 383 371 354 355 398 357 334 334 317
282 277 286 294 347 379 383 411 411 414 409 403 389 378 369 357 352 349 338 333 329 335 347 337 308 327 327 333 442 441 432 420 409 405 399 363 358 351 341 403 357 335 335 321
287 366 383 378 377 375 410 401 403 401 390 382 375 362 353 343 346 328 327 332 339 340 327 312 330 311 321 432 433 422 418 408 410 399 372 352 350 346 337 396 357 343 320 331
386 374 370 373 378 399 388 395 399 386 370 365 349 350 335 340 328 325 328 342 332 320 311 327 310 315 366 421 409 404 417 403 400 391 364 348 346 348 334 386 368 341 330 315
391 398 394 389 392 381 387 361 353 361 356 341 351 331 340 325 325 331 336 325 316 308 322 308 315 318 353 424 404 401 420 400 398 387 360 345 343 339 330 379 368 339 333 316
393 386 382 375 376 369 349 375 356 349 340 342 337 330 326 322 344 330 325 308 314 322 313 310 308 369 349 425 406 394 387 400 391 376 357 343 337 337 326 356 355 345 330 323
382 373 369 365 357 349 371 355 346 339 331 335 326 326 330 340 333 326 309 316 315 320 301 308 306 368 348 402 395 391 380 400 388 376 356 339 336 333 323 363 351 344 331 325

GFSNGP_2pvu_pres_009.txt.gz
Presure
182 184 176 183 178 175 177 173 158 157 147 179 161 171 186 166 169 181 183 182 180 194 188 195 199 198 193 192 198 219 219 210 203 231 241 253 264 267 256 335 340 376 306 269
177 179 184 176 178 168 174 157 153 168 165 178 131 141 171 118 181 188 193 187 192 194 198 199 202 198 203 222 223 234 242 241 254 261 269 278 266 282 345 378 322 302 285 317
180 173 154 172 175 174 163 175 175 136 178 167 172 167 200 208 191 192 201 200 189 206 196 215 219 220 226 237 244 249 239 259 292 282 282 345 338 332 319 306 293 285 310 341
177 177 173 142 176 172 153 147 158 131 107 176 187 179 178 190 201 206 191 205 198 205 214 217 227 238 258 260 283 260 267 356 346 341 338 324 314 303 289 277 306 345 342 349
175 163 166 174 184 162 181 171 172 189 143 104 121 176 183 202 209 221 205 211 213 215 228 246 233 236 263 262 278 323 326 316 325 318 306 298 269 268 356 360 347 342 347 347
185 185 180 179 179 187 135 189 181 184 175 178 200 201 196 147 218 203 215 245 247 244 229 258 278 303 309 330 313 297 296 257 293 287 282 261 305 294 362 349 346 346 344 335
177 172 145 186 190 170 140 188 183 200 201 200 199 218 167 220 229 240 227 242 253 254 264 279 329 292 314 294 298 304 297 275 273 263 266 323 361 362 351 348 349 345 327 326
119 180 189 184 94 194 166 200 203 210 216 229 219 221 220 233 221 246 246 288 272 273 274 325 287 296 303 276 255 258 265 270 271 277 348 376 358 352 350 348 346 331 317 347
157 182 109 130 100 93 217 201 219 207 193 163 220 209 220 219 249 234 263 281 272 283 315 284 278 277 271 291 302 291 273 266 285 388 374 354 351 350 343 349 326 306 363 298
142 164 96 212 200 201 213 211 217 206 207 226 210 228 219 248 250 250 282 270 286 303 265 281 285 284 295 255 257 267 283 397 385 373 352 351 345 341 348 337 326 334 307 411
139 200 222 210 206 202 204 199 180 216 222 217 226 190 239 243 247 277 280 285 305 280 263 264 264 278 280 276 280 345 389 378 369 355 348 343 336 342 342 342 325 313 405 446
109 173 208 170 199 198 207 140 232 195 217 223 232 253 251 267 272 286 285 303 251 261 269 262 298 278 298 402 406 388 374 369 355 349 348 336 342 346 344 322 336 324 442 432
207 203 192 216 217 213 217 231 234 230 223 235 264 257 257 284 287 296 301 265 263 268 274 356 410 406 412 398 382 366 369 356 349 343 339 347 352 338 320 351 324 458 418 408
205 135 217 208 132 217 215 220 234 232 240 255 272 263 275 285 296 268 260 262 272 305 413 421 416 400 395 377 366 366 349 342 335 345 351 343 326 338 343 333 451 434 402 398
208 205 203 222 218 215 231 251 224 246 278 262 272 294 295 301 289 277 288 373 374 410 404 404 396 383 371 363 362 348 339 338 349 347 326 343 347 323 465 453 427 403 391 381
104 217 221 228 233 249 236 239 258 292 278 296 292 309 289 276 280 302 376 388 401 406 395 384 375 366 361 351 341 336 348 353 323 346 339 330 461 453 442 437 402 390 386 363
228 214 227 240 234 255 253 271 298 268 303 300 288 271 284 304 369 397 412 418 407 390 376 369 361 354 344 336 341 353 327 336 341 330 458 454 444 431 424 403 384 377 379 354
249 254 253 245 254 276 302 274 294 306 296 272 279 308 379 397 398 409 403 396 380 373 363 358 346 340 334 347 348 319 337 337 353 450 446 436 424 413 414 380 374 368 369 343
252 167 250 261 295 280 280 299 301 274 218 296 387 375 381 396 403 399 386 373 368 356 349 336 333 336 354 337 313 332 331 417 448 440 430 422 406 410 389 364 365 367 356 339
267 259 278 298 288 298 323 279 285 297 388 377 376 396 393 393 398 382 371 363 349 345 332 329 343 348 330 325 335 326 328 450 435 425 417 403 412 387 373 357 365 362 352 335
268 296 308 309 328 287 284 310 391 387 383 389 391 388 386 383 377 367 358 347 342 330 324 345 337 327 319 333 319 316 440 426 422 411 410 411 384 366 366 348 407 363 345 336
306 334 321 281 288 367 399 389 390 393 384 383 381 385 384 367 363 357 339 339 330 322 343 335 325 316 333 318 314 421 424 412 420 409 406 398 363 357 354 344 389 374 344 333
320 282 294 408 405 408 402 391 382 377 373 377 364 352 363 363 350 336 334 333 323 345 334 322 316 327 313 311 309 436 417 400 423 405 393 380 354 347 348 341 334 378 355 336
397 410 416 415 409 402 393 380 367 367 372 354 349 360 359 345 339 330 329 323 339 343 321 319 321 321 310 306 367 402 411 395 405 402 391 377 350 348 344 339 330 382 355 341
420 413 408 401 396 383 372 369 365 364 351 344 358 351 345 337 335 329 323 325 348 329 319 316 324 305 307 319 358 360 408 395 387 402 389 375 348 341 341 341 327 374 360 343
396 396 452 478 515 492 433 361 353 350 345 343 350 343 339 330 332 328 331 348 336 320 314 319 303 307 299 354 351 351 370 399 381 403 388 376 351 338 337 340 329 325 359 347
410 471 501 507 471 437 371 347 348 338 334 351 350 344 337 335 333 335 346 322 316 316 316 313 304 299 321 353 336 347 354 396 392 368 398 381 361 340 335 336 325 366 351 348

GFSNGP_2pvu_pres_012.txt.gz
Presure
107 182 183 176 179 180 174 178 177 174 164 172 166 169 178 174 177 134 159 188 195 189 194 202 180 208 219 230 226 227 273 282 279 330 293 309 298 299 307 299 282 288 287 264
172 119 178 166 179 169 173 161 167 168 170 173 179 152 168 178 188 185 198 189 182 209 212 230 162 223 226 229 261 242 284 296 293 300 288 317 295 287 286 279 268 263 282 320
181 155 168 172 170 175 179 182 186 185 185 164 188 169 190 196 195 194 195 142 209 225 205 216 236 246 245 229 259 288 300 301 276 274 279 281 264 271 302 290 269 282 368 375
179 190 175 174 182 178 180 177 182 134 175 189 166 183 196 195 207 169 213 214 176 216 214 221 228 177 267 282 299 301 316 267 269 275 291 306 280 273 270 264 282 390 374 360
178 179 181 183 187 162 167 189 174 136 188 196 200 191 192 212 149 208 214 165 212 228 216 224 253 286 266 292 301 301 285 258 260 267 270 282 284 291 280 388 389 372 357 351
178 166 170 109 183 163 189 96 117 162 198 190 200 221 138 199 210 204 210 219 234 235 238 243 287 263 287 300 308 294 255 263 273 263 358 292 423 408 398 388 370 352 351 346
149 178 181 195 102 160 169 115 122 197 189 220 213 210 208 184 215 217 232 227 240 251 242 297 297 301 303 297 274 264 261 270 421 406 421 414 404 393 383 372 351 350 339 346
184 171 136 131 190 124 105 90 215 212 202 208 215 203 214 218 214 224 224 229 250 242 300 287 299 306 313 282 288 292 366 410 398 410 413 402 389 378 370 350 349 337 338 347
185 157 98 127 84 175 152 217 215 199 205 217 209 212 219 219 224 222 234 246 257 280 293 304 306 276 275 287 375 377 406 429 415 411 398 379 372 363 351 347 344 338 348 349
158 105 80 99 189 203 147 181 218 212 210 213 208 212 224 218 225 242 256 251 301 298 305 314 276 285 391 378 375 407 425 415 401 384 369 367 357 348 344 339 346 348 346 317
107 206 183 113 175 206 124 217 210 210 211 214 220 223 225 239 256 252 250 302 293 305 279 284 300 388 378 392 409 411 399 387 374 363 363 349 346 344 348 355 348 332 320 349
180 216 152 134 119 140 129 208 221 216 218 234 244 230 245 249 260 267 306 299 316 283 292 322 382 382 404 414 401 388 377 367 362 354 347 344 351 352 341 330 334 367 359 318
206 169 96 204 96 132 132 219 226 224 216 249 235 265 251 265 266 311 309 323 288 298 386 387 401 414 413 393 378 367 361 353 347 344 354 356 333 328 355 340 335 480 465 447
202 209 112 215 219 207 217 214 230 231 236 245 266 250 255 277 300 315 321 290 312 388 387 393 419 404 386 374 362 352 344 346 347 354 335 329 353 334 363 464 455 449 449 424
150 203 212 218 206 216 212 217 228 222 235 270 260 262 295 298 313 293 289 392 383 382 398 408 393 378 367 357 343 340 345 356 342 324 340 334 332 460 456 447 438 437 420 398
220 224 223 230 226 213 224 236 249 236 267 267 262 297 306 313 279 293 388 384 386 393 387 387 373 361 351 339 335 350 349 330 330 335 329 431 451 444 435 427 427 410 396 379
223 224 215 215 218 225 248 271 269 273 271 284 302 314 315 285 337 390 392 382 381 402 383 369 355 348 337 333 350 340 323 325 335 325 455 446 436 426 417 411 408 391 380 370
213 231 232 224 250 264 265 268 273 299 291 316 325 280 296 391 392 392 381 373 389 382 363 349 345 336 331 346 338 324 325 331 322 426 435 426 422 411 415 410 384 377 374 368
237 252 269 271 259 261 294 301 303 304 321 278 293 395 396 394 387 378 374 384 379 358 343 342 338 329 346 339 327 328 328 320 319 413 426 414 410 409 401 382 366 368 367 367
273 269 269 268 285 302 311 312 323 277 287 399 398 399 390 385 375 371 362 371 358 344 340 336 325 337 345 329 320 330 318 316 430 407 424 413 406 398 388 368 355 362 363 363
266 264 280 291 317 320 288 278 290 419 417 405 391 386 380 368 367 354 361 358 341 343 334 325 329 348 332 320 329 319 312 330 417 400 420 410 401 381 365 364 351 349 362 360
264 280 295 332 326 297 287 424 426 420 399 385 376 374 361 366 351 357 362 344 341 335 328 323 343 343 321 322 319 312 304 357 400 399 405 405 393 368 354 359 346 339 377 355
293 327 294 280 307 430 429 414 401 398 390 382 372 363 355 351 347 360 350 343 334 332 329 336 344 323 313 321 307 307 367 347 361 410 385 406 391 365 346 344 348 339 348 355
278 282 407 428 425 407 399 465 463 471 501 454 394 355 351 347 335 350 340 337 333 331 336 336 319 312 321 307 303 302 359 339 350 364 391 407 388 375 349 343 342 337 332 369
417 422 415 398 394 455 400 390 520 481 445 411 361 347 345 334 349 343 340 335 334 341 323 315 314 311 310 312 300 347 334 335 344 346 407 390 392 382 356 344 341 339 334 343
402 398 384 405 395 382 387 472 450 427 398 360 345 340 334 357 348 346 346 340 337 317 316 315 307 317 297 303 295 343 313 329 345 331 370 396 401 385 365 345 335 341 333 325
383 429 406 377 371 379 429 434 417 380 356 347 341 340 346 349 356 354 341 325 312 319 316 306 312 297 304 295 341 322 310 328 327 331 350 385 389 378 379 357 340 338 333 369

GFSNGP_2pvu_pres_015.txt.gz
Presure
169 177 146 176 175 173 179 186 185 177 176 181 185 184 171 178 184 191 166 194 195 166 205 209 207 175 154 207 220 226 234 257 302 299 309 309 318 279 274 259 256 259 263 263
177 186 184 181 185 183 178 187 178 175 171 179 171 147 179 189 195 196 194 135 207 153 141 202 201 204 213 218 230 251 263 300 312 317 316 288 285 281 298 292 262 270 424 409
176 186 183 184 187 190 174 184 176 172 148 188 185 145 186 197 199 181 168 210 209 184 136 199 209 213 232 235 254 261 281 305 323 301 281 281 301 362 395 430 390 414 403 396
179 180 177 185 181 167 167 168 176 187 190 175 129 112 205 201 123 209 206 213 184 182 143 214 242 259 238 255 273 310 308 327 306 283 295 339 395 382 400 399 404 406 395 391
178 175 179 182 172 185 179 177 181 129 204 128 133 197 191 208 208 204 202 206 220 222 229 235 232 241 263 260 281 316 327 285 291 309 396 383 401 396 418 411 409 396 384 375
175 179 178 161 187 106 181 78 145 163 192 189 200 212 208 208 192 206 213 206 218 230 238 228 237 271 261 301 312 325 280 300 409 393 406 406 417 417 412 401 391 377 367 362
177 179 182 186 151 85 169 191 158 128 200 116 193 210 208 204 212 216 214 221 216 225 225 247 262 270 311 310 315 284 355 395 398 405 423 420 410 404 391 376 366 365 353 346
182 184 186 188 147 195 165 93 185 153 125 211 120 205 209 214 221 218 214 224 222 224 248 282 279 301 316 295 290 400 390 409 415 414 403 392 383 373 365 364 355 346 341 339
193 160 159 119 181 149 138 197 212 199 125 130 128 134 211 221 224 219 224 224 233 278 263 300 297 329 285 304 402 386 408 423 407 393 380 373 366 360 350 344 341 341 343 347
142 130 106 193 212 135 132 91 213 149 183 196 217 221 224 223 224 225 226 239 267 311 307 307 320 279 332 396 383 418 411 396 386 374 367 354 350 349 348 356 356 345 332 322
153 103 137 151 205 211 190 102 213 207 213 224 220 223 220 220 227 227 238 285 306 304 313 275 293 391 394 382 415 400 388 377 367 354 346 350 358 356 346 332 331 349 341 337
172 89 210 196 208 206 210 207 208 204 214 213 213 218 245 239 239 278 286 303 316 316 277 300 401 391 398 409 395 381 369 362 347 345 359 353 340 327 349 335 335 436 482 473
202 160 167 205 209 219 210 210 223 232 228 212 212 231 247 269 264 274 309 314 278 284 304 399 395 394 411 390 377 369 359 347 342 357 344 330 341 332 327 460 463 463 460 441
217 209 201 202 207 203 210 214 222 225 214 215 227 267 274 285 279 304 320 274 288 383 396 397 384 394 384 370 362 354 346 341 353 341 334 336 332 328 458 451 439 437 435 431
203 217 207 208 200 210 224 223 214 216 225 243 263 292 232 271 299 317 280 299 405 398 398 383 387 384 363 362 350 346 340 355 338 331 338 328 321 445 439 433 427 422 429 409
216 219 215 210 213 224 213 214 231 223 264 262 284 299 298 298 315 275 367 403 404 392 383 379 384 355 362 347 346 341 362 338 327 338 325 318 435 429 427 416 410 419 405 394
221 216 214 224 217 223 225 225 264 260 290 286 310 302 310 275 285 407 407 408 391 383 374 368 352 358 349 348 333 353 343 324 333 325 315 424 433 425 410 410 412 393 387 385
223 218 228 224 224 232 249 249 272 273 307 315 319 328 277 415 415 416 403 388 381 369 357 367 355 349 343 335 342 353 324 330 322 313 333 425 431 420 410 404 381 377 378 376
220 224 233 229 242 252 272 288 316 325 328 330 279 333 420 425 410 394 381 374 364 359 345 355 346 342 337 335 351 329 320 331 312 305 369 412 428 416 394 392 365 363 372 368
247 244 236 238 269 276 332 324 324 335 287 303 424 432 419 401 386 377 370 363 357 344 358 349 344 338 333 346 332 318 324 307 306 340 362 407 422 406 385 373 362 351 360 366
238 237 255 278 327 328 314 337 311 297 425 435 420 403 392 404 467 453 368 355 349 345 357 344 334 334 345 324 319 319 319 294 301 333 352 374 423 408 377 361 351 354 342 356
257 268 322 336 342 336 291 333 432 427 417 402 425 417 382 447 450 403 365 350 344 348 341 343 337 341 323 323 310 318 301 310 329 325 348 335 419 408 386 354 349 355 341 342
336 336 338 326 288 292 436 419 407 397 429 405 388 460 468 437 406 376 354 343 338 347 345 340 339 324 322 311 313 309 293 303 336 320 334 333 367 408 400 361 347 339 349 334
336 324 281 287 427 420 409 392 400 416 391 387 468 445 424 399 371 350 343 330 352 349 346 342 321 320 314 308 312 289 303 340 326 315 332 324 350 416 400 390 355 344 345 336
280 306 417 420 403 391 402 428 389 382 383 390 428 411 386 358 344 339 340 361 350 348 339 317 320 319 305 306 290 304 301 333 313 323 328 335 358 360 404 400 380 348 346 336
408 411 400 388 455 438 401 374 376 378 375 361 361 354 346 340 344 351 343 347 345 325 320 320 323 304 304 291 302 300 337 315 319 319 330 345 364 359 372 396 392 369 348 339
397 384 407 426 409 379 363 357 374 370 365 360 354 351 352 355 344 341 333 329 323 322 321 319 304 302 293 299 301 339 313 316 315 324 333 361 370 365 369 388 388 383 368 344

GFSNGP_2pvu_pres_021.txt.gz
Presure
183 187 179 177 178 190 184 184 190 131 174 168 173 180 180 191 192 188 191 191 191 123 123 132 125 131 203 209 209 209 213 222 257 284 301 299 307 319 310 285 393 424 405 411
183 180 186 186 197 188 174 173 169 174 176 185 187 178 203 199 194 190 91 182 147 201 203 189 132 211 211 203 217 214 225 231 297 314 316 322 317 281 372 432 412 417 426 419
181 184 189 189 179 176 185 179 172 182 179 88 196 202 195 166 190 159 191 196 184 207 203 214 212 207 204 211 221 222 238 303 320 326 315 273 318 439 420 413 433 416 403 394
186 193 179 185 179 178 181 176 189 188 184 185 100 98 109 197 193 192 200 191 208 207 208 211 211 204 213 230 234 248 298 324 325 277 285 366 430 416 421 412 399 388 379 371
182 172 176 178 172 193 166 184 181 186 197 88 117 150 189 191 190 198 204 202 207 209 215 213 209 215 238 244 260 297 328 325 303 299 427 423 407 412 395 385 373 363 355 348
190 176 172 188 186 188 182 116 187 185 89 114 202 191 193 193 197 202 204 212 215 223 215 226 219 244 251 262 297 324 330 286 290 431 421 402 405 389 374 364 356 352 348 347
185 186 196 193 178 184 191 186 194 93 101 197 191 197 200 199 206 212 209 224 227 219 222 225 248 259 269 306 311 330 276 314 410 418 404 397 377 371 361 357 354 358 365 356
186 190 188 187 187 195 150 201 207 106 168 98 199 183 201 204 213 205 214 222 213 222 238 249 257 312 311 305 329 274 315 411 411 404 392 375 367 354 356 360 370 350 338 340
188 192 199 187 205 201 191 196 178 191 197 198 202 203 224 211 211 220 218 226 238 247 257 259 319 306 299 327 269 320 424 409 401 389 372 368 352 353 368 352 338 343 338 333
179 89 197 192 189 191 146 189 200 210 211 213 210 214 215 219 215 221 227 259 249 261 268 316 305 311 327 272 321 414 406 389 384 373 366 350 352 366 347 342 342 328 376 438
198 192 168 205 192 114 102 197 153 202 207 201 210 211 213 215 230 256 252 263 298 322 310 308 321 303 274 320 424 407 390 379 377 361 355 352 363 347 341 339 325 412 443 437
190 192 195 197 203 191 196 201 208 203 215 213 210 234 227 248 254 305 332 327 322 311 309 301 273 290 335 417 410 392 376 372 362 357 354 359 345 333 339 324 370 443 430 417
207 203 197 193 200 200 199 204 204 213 212 227 234 245 247 266 357 331 325 275 317 328 302 274 322 419 419 401 384 375 364 363 353 348 354 348 333 338 319 360 422 428 418 413
201 198 197 198 201 205 214 199 216 214 239 226 253 250 257 338 270 274 321 330 312 273 279 375 426 414 396 379 369 362 352 358 340 342 354 332 334 321 325 351 429 409 411 397
203 194 199 204 201 222 228 232 219 254 251 251 264 264 299 319 331 339 324 282 265 332 433 422 403 388 381 372 367 356 346 344 346 355 338 323 329 313 342 345 426 407 383 382
197 208 209 222 220 227 241 222 254 246 293 260 275 304 312 343 313 278 267 322 431 427 410 394 479 437 396 411 373 352 353 343 354 345 326 326 315 306 335 343 416 396 374 372
220 220 214 213 232 231 254 272 279 285 261 348 287 274 322 276 283 310 444 428 425 488 442 397 384 373 414 384 360 349 331 348 345 332 319 324 307 332 329 343 424 391 363 365
231 241 233 251 259 273 295 311 261 347 291 270 310 275 291 304 371 432 447 476 423 401 421 456 444 413 385 364 350 331 347 349 332 320 319 311 304 330 323 339 363 403 369 355
224 243 248 260 275 307 315 331 271 270 277 295 291 286 333 431 419 471 422 402 452 465 444 429 406 380 365 339 341 355 351 327 325 314 307 302 334 322 321 333 353 418 379 356
252 265 261 260 272 278 275 268 284 281 282 287 317 439 421 407 438 401 391 403 452 435 411 384 360 343 334 354 352 350 324 328 312 308 294 317 326 316 322 333 381 362 394 362
254 256 258 270 280 298 289 281 294 304 308 443 434 414 455 425 393 382 384 374 375 370 356 350 345 368 372 351 338 318 326 312 309 293 302 339 315 319 321 337 382 383 417 369
254 247 266 288 305 296 294 301 313 341 435 423 401 485 421 384 372 374 371 366 366 360 355 353 346 350 342 324 323 324 315 300 303 301 338 316 314 321 324 336 389 385 371 411
262 269 291 311 312 317 316 335 401 425 406 392 444 415 379 361 356 354 350 366 368 362 351 344 339 333 329 324 321 310 296 303 305 331 315 311 320 320 320 334 376 393 381 386
282 321 321 327 328 351 340 427 414 394 428 438 395 376 362 347 333 348 337 342 350 350 343 337 331 327 317 317 303 301 302 308 331 309 309 317 317 320 317 330 347 399 389 381
324 327 334 346 344 419 420 406 384 443 431 379 363 354 346 332 332 345 339 331 330 326 329 325 319 315 316 307 305 302 310 328 302 305 312 317 320 318 319 332 344 403 390 382
340 345 344 374 405 410 392 413 439 418 369 353 359 348 338 341 340 341 343 330 326 319 318 319 318 314 307 306 301 313 329 291 289 302 315 319 322 317 318 332 338 391 397 383
334 407 405 405 394 380 437 434 409 361 355 362 359 368 370 365 349 338 336 332 329 319 316 313 310 310 303 302 313 332 293 291 285 299 316 320 322 318 320 331 336 356 399 386

GFSNGP_2pvu_pres_024.txt.gz
Presure
179 177 181 182 185 187 188 192 183 175 175 188 181 173 113 181 180 107 104 197 191 188 188 193 196 197 209 204 205 215 216 214 227 242 254 257 306 321 340 315 383 437 427 427
185 187 182 190 196 191 200 180 181 177 167 192 180 168 184 174 97 118 199 191 189 191 199 198 197 211 212 133 218 224 222 227 259 263 275 335 313 340 277 374 429 408 417 401
200 197 196 196 178 185 179 186 171 178 187 185 183 180 182 95 170 198 192 190 194 195 199 206 208 216 217 221 224 229 248 265 301 311 325 318 337 282 444 423 406 404 387 379
196 187 185 181 186 191 181 184 189 193 186 175 180 205 113 105 138 125 200 199 200 201 202 214 213 224 224 231 251 309 312 313 328 316 321 310 285 436 417 403 391 377 372 365
204 174 182 183 178 178 185 182 185 194 192 192 197 93 97 105 189 192 193 200 203 212 224 211 225 227 253 262 265 336 333 323 316 325 286 287 432 413 400 387 378 366 365 361
197 171 166 175 175 184 179 178 184 192 197 203 194 196 189 190 190 191 201 211 205 223 211 227 235 240 267 349 317 313 286 317 333 287 291 433 408 396 386 378 366 364 363 371
185 196 167 183 187 185 177 138 152 124 193 121 160 191 194 193 197 204 206 226 227 233 235 233 258 270 286 327 318 321 327 314 275 309 434 407 392 388 373 367 360 367 357 347
214 184 187 187 189 192 180 189 191 195 201 200 192 196 198 204 207 208 220 226 243 227 271 275 277 337 312 326 332 331 269 287 368 429 407 387 380 371 366 361 369 350 344 341
80 196 82 189 193 192 187 201 207 204 211 202 201 202 202 209 225 223 229 243 275 301 264 332 287 318 332 285 263 279 301 418 418 404 385 371 368 364 356 367 348 344 333 349
173 163 197 191 189 189 202 201 209 208 200 198 209 208 223 217 209 246 280 342 339 322 299 286 279 277 279 284 299 352 422 408 396 380 367 361 365 355 362 351 340 331 320 359
189 195 193 178 196 199 196 203 203 193 197 207 208 213 220 220 232 280 292 349 334 284 270 285 289 290 293 332 430 416 401 381 369 364 360 356 356 354 358 335 331 318 354 429
198 188 191 196 196 202 207 200 197 202 205 211 217 224 233 258 263 286 299 284 263 272 278 285 279 322 440 422 410 397 378 371 367 361 351 357 353 357 334 335 323 348 355 418
189 191 198 193 203 202 194 201 202 201 210 217 229 237 237 267 262 297 304 288 279 290 291 312 447 432 420 437 482 473 453 420 391 362 353 346 356 339 324 326 312 343 379 396
198 199 205 201 206 206 206 204 209 218 223 213 238 234 265 263 279 312 300 292 299 314 364 442 440 502 498 461 423 379 365 362 368 354 344 355 341 324 325 312 339 335 362 389
195 200 197 199 202 204 203 211 209 228 236 232 236 265 254 293 309 315 309 313 323 442 431 483 448 411 393 385 397 397 396 372 356 344 349 340 328 318 318 312 332 331 357 393
204 205 203 208 204 216 223 229 233 221 234 250 277 260 252 302 331 320 329 357 432 452 447 410 400 500 459 436 419 392 370 354 333 349 343 330 318 319 301 332 325 331 364 401
201 202 203 219 218 213 233 227 257 244 262 272 265 285 295 330 326 344 438 419 459 419 396 394 454 441 421 398 377 358 340 341 353 341 327 319 311 294 314 326 321 333 380 407
215 215 221 218 225 227 251 253 274 250 275 272 296 296 334 350 360 430 413 449 411 384 387 381 405 391 365 351 346 345 355 353 331 321 327 310 299 304 331 317 322 333 387 355
228 236 241 242 239 257 267 272 275 282 272 285 310 345 354 438 417 450 441 406 379 369 370 371 360 362 353 363 367 357 340 324 324 326 307 300 302 344 316 319 323 329 379 384
129 237 239 225 261 250 251 267 280 279 310 333 355 341 429 409 459 435 401 375 356 346 365 369 364 363 355 347 338 326 324 323 321 303 302 305 335 312 318 320 322 322 353 401
261 240 268 238 257 254 274 265 284 308 351 319 321 425 406 459 436 397 375 358 339 340 348 369 355 350 345 336 332 326 321 317 299 306 308 330 306 308 320 320 321 321 340 401
271 271 264 255 266 269 265 290 343 347 312 358 418 415 450 428 386 366 360 346 332 341 336 339 343 342 336 332 321 318 312 304 304 308 324 296 294 312 318 324 320 319 337 391
257 256 252 267 267 282 290 304 317 318 414 408 443 445 429 380 361 353 346 343 332 338 337 332 326 321 323 321 316 310 307 303 304 318 296 287 284 310 317 324 320 318 331 359
259 260 219 266 292 316 326 350 433 414 402 438 441 425 376 359 363 358 353 347 345 339 339 329 328 320 318 313 308 308 305 299 316 334 292 295 283 294 314 320 320 319 332 350
270 263 272 290 301 328 355 422 407 393 437 433 423 369 357 352 385 380 374 366 353 342 338 333 331 320 315 313 310 300 301 312 330 295 297 300 289 295 303 318 321 321 332 346
270 277 312 326 352 403 413 400 388 415 431 415 364 355 346 355 351 350 345 345 340 335 321 317 315 301 294 300 307 310 316 331 295 302 303 300 295 300 304 316 321 323 330 346
302 336 349 358 411 403 387 379 417 417 429 358 354 348 347 346 337 328 319 308 318 323 321 306 296 301 320 325 328 332 339 294 301 302 296 293 293 299 313 319 322 327 334 346